Wind_Speed
12 11 11 12 13 15 16 17 19 21 22 23 25 26 28 30 32 33 35 37 40 43 45 46 47 48 51 52 52 53 54 54 55 54 54 53 52 52 52 53 53 51 50
12 11 11 12 14 15 16 18 19 21 22 23 25 27 29 30 32 33 35 36 38 40 42 44 44 45 48 49 51 52 54 55 56 54 54 54 54 53 54 55 55 54 54
13 13 12 13 14 15 16 18 20 22 23 25 26 28 29 31 33 34 35 36 38 39 40 42 45 46 47 49 51 52 53 55 56 57 56 56 57 57 57 56 57 57 57
15 15 14 15 15 16 18 19 21 22 24 26 28 29 31 32 33 34 35 36 38 40 42 44 45 47 49 50 51 53 54 56 57 59 59 59 59 60 60 60 60 61 60
17 17 17 17 18 18 20 21 22 23 25 26 28 30 31 33 35 36 38 39 41 42 43 45 47 49 51 53 54 54 56 57 58 58 60 60 60 61 62 62 63 63 63
19 19 19 19 20 21 22 23 24 26 27 29 31 32 33 35 36 38 40 41 43 44 46 47 49 51 53 55 57 58 58 59 59 60 60 61 62 63 63 63 63 64 65
21 21 21 22 23 24 25 27 28 29 31 33 35 36 37 38 40 42 43 44 46 48 49 51 52 54 55 57 58 60 61 62 63 63 64 64 65 66 67 67 67 66 66
22 23 23 24 25 27 29 30 32 34 36 38 39 40 41 42 43 45 47 48 50 51 53 55 56 57 59 60 61 62 63 64 65 66 66 66 67 68 70 70 70 70 69
24 25 27 28 29 31 32 34 36 37 39 40 41 42 43 45 46 48 50 51 52 54 56 58 59 60 60 62 63 63 64 65 66 67 67 67 68 69 70 71 72 72 72
28 29 30 31 33 34 36 37 38 40 41 42 43 44 45 47 49 51 52 54 56 57 59 60 62 63 63 63 65 65 66 66 67 68 69 69 68 69 70 71 72 72 72
31 32 33 35 36 37 38 39 41 42 43 44 46 47 49 50 52 54 56 58 59 60 61 61 62 63 64 64 65 66 67 67 67 67 68 69 69 70 70 70 70 71 71
34 35 36 37 38 39 41 42 44 45 46 47 48 50 51 53 55 56 58 60 61 62 62 62 62 63 63 63 63 63 64 65 65 65 66 67 68 68 68 68 68 68 68
36 37 38 39 40 42 43 44 46 47 48 49 50 51 53 55 57 59 60 61 62 62 62 61 61 61 61 61 60 60 61 61 62 62 63 64 65 65 65 66 66 65 64
37 38 39 41 42 44 45 47 48 49 50 51 52 54 55 57 58 59 59 59 58 58 58 58 58 58 58 58 58 58 58 58 58 58 59 59 60 60 61 61 62 62 61
39 40 42 43 44 46 47 48 50 51 52 53 54 55 56 57 57 57 56 56 56 56 55 54 54 54 54 54 54 54 53 53 53 53 54 54 54 54 55 56 57 57 56
41 42 43 44 46 47 48 49 50 52 53 54 55 56 57 57 56 56 56 56 55 55 54 53 52 52 51 50 49 48 47 47 46 46 46 47 47 47 48 48 50 50 50
43 44 45 46 47 48 49 49 50 52 53 54 56 56 57 56 56 55 54 54 53 53 51 50 49 48 47 46 44 43 43 42 41 40 40 39 40 41 41 42 43 44 45
44 45 46 47 48 49 49 50 51 52 53 54 55 56 56 55 54 53 52 51 50 49 48 47 46 45 44 42 40 39 38 37 37 36 35 34 33 33 34 34 36 38 40
45 46 47 48 49 49 50 51 51 52 53 53 53 54 54 53 51 51 50 48 47 46 45 44 43 42 40 38 36 35 34 33 32 31 30 29 28 27 28 28 30 32 35
46 47 47 48 49 50 50 50 51 51 51 51 52 52 52 50 49 48 48 46 45 45 43 42 40 37 36 34 32 32 31 29 27 25 24 23 23 23 23 24 25 27 30
46 47 47 48 49 49 49 50 49 50 50 50 51 51 50 49 48 46 45 44 43 42 40 39 37 34 33 31 30 29 27 25 23 20 19 19 19 20 20 21 22 23 25
46 46 47 48 48 48 48 48 48 48 49 50 50 50 49 48 46 45 43 42 41 40 38 36 34 32 30 29 27 26 23 21 18 16 14 13 14 15 16 17 18 20 23
45 46 47 47 47 47 48 48 47 48 48 49 49 48 47 46 44 42 41 39 38 37 35 33 31 29 28 26 25 22 19 16 13 11 10 10 10 11 12 13 15 17 19
45 46 46 47 47 47 47 47 47 47 47 48 47 47 46 44 42 40 39 36 35 33 31 29 28 27 25 24 22 19 15 12 10 9 9 8 8 8 9 10 13 15 17
45 45 46 46 46 46 45 45 45 46 46 46 46 45 44 41 39 37 35 33 31 30 28 26 25 24 23 21 19 15 13 10 8 8 7 7 7 7 8 9 11 14 16
44 44 45 45 45 44 43 43 44 44 44 44 44 43 41 39 37 34 32 29 28 27 25 24 23 22 21 18 16 13 11 8 6 5 5 5 6 7 8 10 11 14 16
Wind_Direction
310 303 297 289 283 278 276 275 275 274 276 276 274 273 274 273 271 272 271 270 268 266 264 262 262 263 262 261 262 263 262 263 262 262 262 262 262 261 260 260 259 259 259
319 314 306 297 291 288 284 282 282 280 279 279 278 278 278 277 277 278 277 275 273 270 268 266 266 265 264 263 263 264 264 263 263 263 262 262 262 261 260 260 259 259 259
322 317 313 311 304 297 291 288 287 285 285 285 283 283 283 282 280 279 280 278 276 274 272 270 269 268 266 265 265 265 265 264 263 263 263 262 262 261 260 259 258 258 259
327 320 313 309 306 301 297 295 293 291 291 289 288 287 286 286 285 283 283 281 280 279 277 275 272 270 269 268 268 267 266 265 264 263 263 263 262 262 261 260 260 259 259
326 322 316 312 310 307 304 301 298 298 298 296 294 292 291 289 286 284 284 283 282 281 280 279 276 273 271 270 269 268 266 266 265 264 263 262 262 261 261 261 260 260 259
321 320 318 313 311 309 308 306 304 303 302 300 299 297 294 292 290 287 286 285 284 283 282 281 279 276 274 272 271 270 268 268 266 266 266 265 264 263 262 262 261 260 259
318 317 316 314 311 309 308 307 305 304 303 301 300 299 296 295 292 290 289 288 287 286 285 284 283 280 278 275 273 272 270 269 268 267 266 266 265 264 263 261 261 261 260
319 317 316 314 312 311 310 308 307 306 305 303 301 300 297 296 294 292 290 289 289 288 287 286 285 283 280 277 275 273 272 270 268 267 267 267 266 265 264 262 261 260 259
317 317 315 313 312 311 310 309 308 307 305 304 303 301 300 298 297 295 294 293 292 290 289 287 285 284 282 279 277 275 273 271 269 268 267 267 266 265 264 262 260 260 259
316 315 313 312 311 310 309 309 308 307 306 305 304 303 301 300 299 298 297 296 294 292 291 289 287 285 283 280 278 276 274 272 271 270 269 268 267 266 264 263 261 260 259
313 313 312 312 311 311 310 310 310 309 308 307 305 304 303 302 301 300 299 297 296 294 293 291 289 287 285 283 281 279 277 275 273 271 269 268 267 265 264 263 262 261 259
311 312 312 311 311 310 310 310 310 310 309 308 307 306 304 303 302 301 300 299 298 296 295 293 291 289 287 285 283 282 279 277 274 272 269 268 266 264 262 261 261 260 259
310 311 311 311 311 311 311 311 310 310 309 308 308 307 306 305 304 303 302 301 300 299 297 295 293 291 289 287 285 284 281 279 277 273 270 268 266 263 261 259 258 257 256
310 311 311 312 312 312 312 311 311 310 310 309 309 308 307 307 306 306 305 304 303 302 300 298 296 294 292 290 288 286 284 282 279 275 272 270 266 262 259 258 257 255 254
311 312 313 313 313 313 312 312 312 311 311 311 311 310 309 309 308 308 307 306 305 304 303 301 299 298 296 294 291 289 287 285 282 278 275 271 267 262 259 257 255 254 252
312 312 313 313 313 313 313 313 313 313 313 312 312 312 312 311 310 310 309 309 308 307 306 304 303 302 300 297 294 292 290 287 284 281 277 272 268 263 259 256 253 250 249
312 313 313 313 314 314 314 314 314 314 314 314 315 315 314 313 312 312 311 311 310 310 309 307 306 305 303 300 297 294 292 289 286 283 279 274 269 263 259 255 251 247 244
312 313 313 314 314 315 315 315 315 316 316 316 316 316 316 316 315 315 314 314 313 312 312 310 309 308 306 303 300 298 295 291 288 284 279 274 270 264 258 253 249 245 241
312 313 314 314 315 315 316 316 316 317 317 317 318 318 319 318 317 317 317 316 315 315 314 314 313 311 309 305 303 301 299 295 291 285 279 273 267 262 257 251 247 243 239
312 313 314 315 315 316 317 317 317 318 318 319 320 320 320 319 319 318 318 317 317 317 317 317 317 314 312 309 306 306 303 298 294 287 279 271 264 259 254 249 245 240 237
311 313 314 315 316 317 317 318 318 319 320 320 321 322 322 321 320 320 319 319 319 320 320 320 320 318 315 313 311 309 306 300 294 287 278 268 261 255 250 246 241 237 231
311 313 315 316 316 317 317 318 319 320 321 322 323 323 322 322 321 321 321 321 321 321 321 322 322 321 319 317 315 313 308 301 292 283 276 267 257 249 246 241 236 232 224
311 313 314 316 317 317 318 318 320 321 322 323 323 324 324 323 323 323 322 322 323 323 323 323 324 324 323 321 318 316 312 302 289 278 269 261 249 241 237 231 226 220 215
311 313 314 316 316 317 318 319 320 322 323 324 325 325 325 324 324 324 324 324 326 326 326 325 326 327 327 326 324 321 317 306 289 277 265 254 242 232 224 217 210 204 200
312 313 314 315 316 317 318 319 321 323 324 325 326 327 327 326 326 326 326 327 328 329 329 328 329 330 331 331 329 326 321 311 297 281 263 244 232 222 213 203 196 191 190
311 313 315 316 317 318 319 320 322 324 325 326 327 328 329 328 328 327 328 329 330 331 332 331 331 332 334 334 335 333 328 319 307 287 257 233 217 206 197 189 186 182 181
Height
5639 5637 5637 5636 5636 5636 5636 5637 5638 5638 5639 5639 5640 5640 5640 5640 5640 5639 5639 5638 5638 5638 5638 5638 5639 5640 5641 5642 5643 5644 5645 5646 5648 5651 5653 5654 5656 5658 5660 5662 5664 5666 5668
5637 5635 5634 5634 5633 5633 5633 5633 5633 5633 5633 5633 5633 5633 5632 5631 5631 5630 5629 5628 5627 5627 5626 5626 5626 5626 5627 5628 5629 5629 5630 5631 5632 5634 5637 5638 5640 5643 5644 5646 5649 5651 5653
5635 5633 5632 5631 5630 5630 5629 5629 5629 5628 5628 5627 5626 5625 5624 5623 5622 5621 5620 5618 5617 5615 5614 5614 5613 5613 5614 5614 5614 5614 5615 5615 5615 5617 5620 5621 5623 5625 5627 5629 5632 5634 5637
5633 5631 5630 5629 5628 5627 5626 5625 5624 5623 5621 5620 5619 5617 5616 5614 5612 5611 5609 5607 5605 5604 5602 5601 5599 5599 5599 5598 5598 5598 5598 5598 5598 5599 5601 5603 5605 5607 5609 5611 5614 5616 5619
5631 5629 5627 5625 5624 5623 5621 5620 5618 5617 5615 5613 5610 5608 5606 5604 5602 5600 5598 5596 5593 5591 5589 5587 5585 5584 5582 5582 5581 5581 5581 5580 5580 5581 5582 5583 5585 5587 5589 5592 5594 5598 5601
5628 5625 5623 5621 5619 5618 5616 5614 5612 5610 5607 5604 5602 5599 5596 5593 5591 5588 5586 5583 5581 5578 5575 5572 5569 5567 5565 5564 5563 5562 5562 5561 5561 5561 5562 5563 5565 5567 5569 5570 5573 5577 5582
5624 5621 5619 5617 5614 5612 5610 5607 5605 5602 5599 5595 5592 5589 5585 5582 5579 5576 5573 5570 5566 5563 5560 5556 5553 5549 5546 5545 5543 5542 5542 5541 5540 5541 5542 5543 5544 5545 5547 5549 5551 5555 5560
5620 5617 5614 5611 5609 5606 5603 5600 5597 5593 5589 5585 5581 5577 5573 5569 5566 5562 5558 5555 5551 5546 5542 5538 5534 5531 5527 5524 5522 5521 5520 5519 5518 5518 5520 5521 5521 5521 5522 5525 5527 5531 5536
5615 5611 5608 5605 5602 5598 5595 5591 5587 5583 5578 5574 5569 5565 5561 5556 5552 5547 5543 5539 5534 5529 5524 5519 5514 5510 5506 5502 5500 5499 5498 5496 5494 5494 5495 5496 5496 5497 5497 5498 5501 5504 5510
5608 5605 5601 5598 5594 5590 5586 5581 5577 5572 5567 5562 5557 5552 5548 5543 5537 5532 5527 5522 5517 5511 5505 5499 5493 5488 5483 5479 5476 5475 5473 5472 5470 5470 5470 5471 5471 5471 5471 5472 5475 5478 5482
5601 5597 5593 5589 5585 5580 5576 5571 5566 5561 5556 5551 5545 5540 5534 5528 5522 5516 5509 5503 5497 5491 5485 5478 5472 5465 5460 5456 5452 5449 5447 5446 5445 5444 5444 5445 5445 5445 5446 5447 5449 5452 5456
5594 5589 5585 5580 5575 5570 5565 5560 5555 5550 5544 5538 5532 5525 5519 5512 5506 5499 5491 5484 5477 5471 5464 5457 5450 5444 5438 5433 5428 5425 5422 5420 5419 5419 5419 5419 5419 5419 5420 5422 5424 5427 5431
5585 5580 5575 5570 5565 5560 5555 5549 5543 5537 5531 5525 5518 5511 5504 5496 5489 5481 5473 5465 5457 5449 5442 5435 5429 5422 5416 5411 5406 5402 5398 5395 5394 5393 5393 5394 5393 5394 5395 5397 5400 5403 5407
5576 5571 5566 5560 5555 5549 5543 5537 5531 5524 5517 5510 5503 5496 5489 5480 5472 5464 5455 5447 5438 5430 5423 5416 5408 5402 5395 5390 5385 5380 5376 5372 5370 5369 5369 5368 5368 5369 5371 5373 5376 5380 5385
5566 5561 5556 5550 5544 5538 5531 5524 5517 5510 5503 5496 5489 5481 5472 5464 5455 5446 5437 5430 5421 5413 5405 5398 5391 5384 5377 5371 5365 5360 5355 5351 5348 5346 5346 5345 5346 5347 5349 5351 5354 5359 5364
5556 5551 5545 5539 5532 5526 5519 5511 5503 5496 5488 5480 5472 5464 5456 5447 5438 5430 5421 5412 5404 5396 5388 5381 5374 5366 5360 5354 5348 5343 5338 5334 5331 5328 5326 5326 5326 5327 5330 5332 5335 5340 5345
5546 5540 5534 5527 5520 5514 5506 5499 5492 5483 5474 5466 5457 5449 5440 5431 5422 5414 5405 5397 5388 5380 5372 5365 5357 5351 5344 5338 5332 5328 5323 5319 5316 5313 5311 5310 5310 5311 5313 5316 5319 5323 5329
5535 5529 5522 5516 5509 5501 5494 5487 5479 5471 5463 5454 5444 5435 5426 5417 5408 5399 5391 5383 5374 5366 5358 5351 5343 5337 5330 5324 5319 5314 5310 5306 5302 5300 5298 5297 5297 5298 5300 5303 5306 5310 5315
5524 5517 5511 5504 5497 5489 5482 5474 5466 5458 5450 5441 5432 5423 5413 5404 5395 5386 5378 5370 5362 5354 5346 5338 5331 5324 5318 5312 5307 5303 5298 5294 5291 5288 5287 5286 5287 5288 5290 5293 5295 5299 5304
5512 5506 5499 5492 5485 5478 5470 5462 5454 5446 5438 5429 5420 5411 5402 5393 5384 5375 5366 5358 5351 5343 5335 5327 5320 5313 5307 5302 5298 5293 5289 5285 5282 5279 5278 5278 5279 5280 5282 5285 5288 5291 5295
5501 5494 5487 5480 5473 5466 5458 5451 5443 5435 5426 5417 5409 5399 5390 5382 5373 5365 5356 5348 5340 5333 5325 5318 5311 5304 5299 5294 5289 5285 5280 5277 5274 5273 5272 5272 5272 5274 5276 5278 5281 5284 5288
5489 5483 5476 5469 5462 5455 5447 5440 5432 5424 5415 5407 5398 5389 5380 5371 5363 5355 5347 5339 5331 5323 5316 5310 5303 5297 5291 5287 5282 5278 5274 5271 5269 5267 5267 5267 5268 5269 5271 5273 5276 5279 5283
5478 5472 5465 5458 5451 5444 5437 5429 5421 5413 5405 5396 5388 5379 5370 5362 5353 5345 5338 5330 5323 5316 5309 5303 5297 5291 5286 5281 5276 5272 5269 5266 5265 5264 5264 5264 5265 5266 5268 5270 5272 5276 5279
5467 5461 5455 5448 5440 5433 5426 5419 5411 5403 5395 5387 5378 5370 5361 5353 5345 5337 5330 5323 5316 5309 5303 5297 5292 5287 5282 5277 5272 5268 5265 5263 5262 5262 5262 5262 5263 5264 5266 5268 5270 5274 5277
5457 5451 5444 5437 5430 5423 5416 5409 5401 5394 5386 5377 5369 5361 5353 5345 5337 5330 5323 5317 5310 5304 5298 5293 5288 5283 5279 5274 5269 5266 5263 5262 5260 5260 5260 5261 5262 5263 5265 5267 5270 5273 5277
5446 5440 5434 5427 5420 5413 5406 5399 5392 5385 5377 5369 5361 5353 5345 5338 5331 5324 5318 5312 5306 5300 5295 5290 5285 5281 5276 5272 5268 5265 5262 5261 5260 5259 5259 5260 5261 5263 5265 5267 5270 5273 5277